,,,PA_Meas_PMT16A,,PR_Meas_QMR101_102,,RH_Meas_QMH101,,SR_Meas_QMS101,,TA_Meas_QMH101,,GenWind,,GenWind,
date,time,status,PA,status,PR,status,RH,status,SR,status,TA,status,DirAvg,status,SpdAvg,
2009-05-25, 00:00:04,VALID,1003.73,VALID,0,VALID,86.0614,VALID,0,VALID,26.0985,VALID,27,VALID,0.509766,
2009-05-25, 00:01:04,VALID,1003.73,VALID,0,VALID,85.8707,VALID,0,VALID,26.118,VALID,18,VALID,1.10586,
2009-05-25, 00:02:04,VALID,1003.71,VALID,0,VALID,85.8936,VALID,0,VALID,26.0985,VALID,12,VALID,0.473437,
2009-05-25, 00:03:04,VALID,1003.7,VALID,0,VALID,85.6494,VALID,0,VALID,26.0791,VALID,318,VALID,0.788672,
2009-05-25, 00:04:04,VALID,1003.69,VALID,0,VALID,85.6494,VALID,0,VALID,26.118,VALID,358,VALID,0.317578,
2009-05-25, 00:05:04,VALID,1003.65,VALID,0,VALID,85.6266,VALID,0,VALID,26.0985,VALID,358,VALID,0.385156,
2009-05-25, 00:06:04,VALID,1003.65,VALID,0,VALID,85.6647,VALID,0,VALID,26.0791,VALID,358,VALID,0.301562,
2009-05-25, 00:07:04,VALID,1003.66,VALID,0,VALID,85.6189,VALID,0,VALID,26.0401,VALID,358,VALID,0.207031,
2009-05-25, 00:08:04,VALID,1003.68,VALID,0,VALID,85.4892,VALID,0,VALID,26.0401,VALID,357,VALID,0.299609,
2009-05-25, 00:09:04,VALID,1003.67,VALID,0,VALID,85.5198,VALID,0,VALID,26.0401,VALID,8,VALID,0.523828,
2009-05-25, 00:10:04,VALID,1003.64,VALID,0,VALID,85.4969,VALID,0,VALID,26.0206,VALID,12,VALID,0.366016,
2009-05-25, 00:11:04,VALID,1003.64,VALID,0,VALID,85.4358,VALID,0,VALID,26.0206,VALID,12,VALID,0.344531,
2009-05-25, 00:12:04,VALID,1003.62,VALID,0,VALID,85.268,VALID,0.100563,VALID,26.0187,VALID,346,VALID,0.453906,
2009-05-25, 00:13:04,VALID,1003.62,VALID,0,VALID,84.6348,VALID,0.100563,VALID,26.1375,VALID,23,VALID,1.27383,
2009-05-25, 00:14:04,VALID,1003.6,VALID,0,VALID,84.2762,VALID,0.100563,VALID,26.2134,VALID,27,VALID,0.398828,
2009-05-25, 00:15:04,VALID,1003.58,VALID,0,VALID,84.3449,VALID,0.100563,VALID,26.192,VALID,12,VALID,0.308594,
2009-05-25, 00:16:04,VALID,1003.54,VALID,0,VALID,84.6272,VALID,0.100563,VALID,26.194,VALID,11,VALID,0,
2009-05-25, 00:17:04,VALID,1003.53,VALID,0,VALID,84.8942,VALID,0.100563,VALID,26.1355,VALID,12,VALID,0.525781,
2009-05-25, 00:18:04,VALID,1003.53,VALID,0,VALID,84.9705,VALID,0.100563,VALID,26.1355,VALID,23,VALID,0.195703,
2009-05-25, 00:19:04,VALID,1003.54,VALID,0,VALID,85.1078,VALID,0.100563,VALID,26.0966,VALID,344,VALID,0.444141,
2009-05-25, 00:20:04,VALID,1003.51,VALID,0,VALID,85.2909,VALID,0.100563,VALID,26.116,VALID,348,VALID,0.340234,
2009-05-25, 00:21:04,VALID,1003.49,VALID,0,VALID,85.5121,VALID,0.100563,VALID,26.116,VALID,3,VALID,0.531641,
2009-05-25, 00:22:04,VALID,1003.47,VALID,0,VALID,85.474,VALID,0.100563,VALID,26.116,VALID,4,VALID,0.339063,
2009-05-25, 00:23:04,VALID,1003.45,VALID,0,VALID,85.6952,VALID,0.100563,VALID,26.0966,VALID,3,VALID,0.274219,
2009-05-25, 00:24:04,VALID,1003.47,VALID,0,VALID,85.9851,VALID,0.100563,VALID,26.118,VALID,4,VALID,0.519141,
2009-05-25, 00:25:04,VALID,1003.45,VALID,0,VALID,86.1148,VALID,0.100563,VALID,26.0966,VALID,359,VALID,0.623438,
2009-05-25, 00:26:04,VALID,1003.44,VALID,0,VALID,86.3208,VALID,0.100563,VALID,26.116,VALID,5,VALID,0.775,
2009-05-25, 00:27:04,VALID,1003.42,VALID,0,VALID,86.3055,VALID,0,VALID,26.1375,VALID,7,VALID,0.401953,
2009-05-25, 00:28:04,VALID,1003.44,VALID,0,VALID,86.3132,VALID,0,VALID,26.157,VALID,348,VALID,0.739453,
2009-05-25, 00:29:04,VALID,1003.43,VALID,0,VALID,86.0538,VALID,0,VALID,26.2154,VALID,7,VALID,1.13008,
2009-05-25, 00:30:04,VALID,1003.41,VALID,0,VALID,85.7105,VALID,0,VALID,26.2933,VALID,356,VALID,0.6625,
2009-05-25, 00:31:04,VALID,1003.39,VALID,0,VALID,85.4969,VALID,0,VALID,26.3128,VALID,7,VALID,1.14688,
2009-05-25, 00:32:04,VALID,1003.36,VALID,0,VALID,85.2375,VALID,0,VALID,26.3518,VALID,9,VALID,1.29648,
2009-05-25, 00:33:04,VALID,1003.32,VALID,0,VALID,84.9476,VALID,0,VALID,26.4512,VALID,336,VALID,0.537891,
2009-05-25, 00:34:04,VALID,1003.33,VALID,0,VALID,84.8026,VALID,0,VALID,26.4492,VALID,358,VALID,0.426172,
2009-05-25, 00:35:04,VALID,1003.29,VALID,0,VALID,84.8179,VALID,0,VALID,26.4901,VALID,345,VALID,0.840234,
2009-05-25, 00:36:04,VALID,1003.31,VALID,0,VALID,84.6729,VALID,0,VALID,26.4881,VALID,351,VALID,0.750781,
2009-05-25, 00:37:04,VALID,1003.32,VALID,0,VALID,84.6348,VALID,0,VALID,26.4881,VALID,39,VALID,0.407031,
2009-05-25, 00:38:04,VALID,1003.27,VALID,0,VALID,84.6653,VALID,0,VALID,26.4687,VALID,7,VALID,0.610547,
2009-05-25, 00:39:04,VALID,1003.26,VALID,0,VALID,84.7187,VALID,0,VALID,26.4492,VALID,316,VALID,0.494141,
2009-05-25, 00:40:04,VALID,1003.2,VALID,0,VALID,84.856,VALID,0,VALID,26.4297,VALID,7,VALID,0.485156,
2009-05-25, 00:41:04,VALID,1003.23,VALID,0,VALID,84.9476,VALID,0,VALID,26.4297,VALID,6,VALID,0.196094,
2009-05-25, 00:42:04,VALID,1003.21,VALID,0,VALID,85.0773,VALID,0.100563,VALID,26.4102,VALID,341,VALID,0.605859,
2009-05-25, 00:43:04,VALID,1003.21,VALID,0,VALID,85.1383,VALID,0.100563,VALID,26.3498,VALID,340,VALID,0.451953,
2009-05-25, 00:44:04,VALID,1003.23,VALID,0,VALID,85.1612,VALID,0,VALID,26.3303,VALID,350,VALID,0.768359,
2009-05-25, 00:45:04,VALID,1003.21,VALID,0,VALID,85.1383,VALID,0,VALID,26.3303,VALID,360,VALID,0.273828,
2009-05-25, 00:46:04,VALID,1003.2,VALID,0,VALID,85.1765,VALID,0,VALID,26.3518,VALID,351,VALID,0.410156,
2009-05-25, 00:47:04,VALID,1003.2,VALID,0,VALID,85.1459,VALID,0.100563,VALID,26.3518,VALID,341,VALID,0.444531,
2009-05-25, 00:48:04,VALID,1003.19,VALID,0,VALID,85.1765,VALID,0,VALID,26.3303,VALID,339,VALID,0.904688,
2009-05-25, 00:49:04,VALID,1003.18,VALID,0,VALID,85.1993,VALID,0,VALID,26.3303,VALID,347,VALID,0.667969,
2009-05-25, 00:50:04,VALID,1003.17,VALID,0,VALID,85.2909,VALID,0,VALID,26.3128,VALID,347,VALID,0.407031,
2009-05-25, 00:51:04,VALID,1003.14,VALID,0,VALID,85.3824,VALID,0,VALID,26.3128,VALID,342,VALID,0.788281,
2009-05-25, 00:52:04,VALID,1003.11,VALID,0,VALID,85.2985,VALID,0,VALID,26.2913,VALID,345,VALID,0.621094,
2009-05-25, 00:53:04,VALID,1003.1,VALID,0,VALID,85.4816,VALID,0,VALID,26.2739,VALID,349,VALID,0.212109,
2009-05-25, 00:54:04,VALID,1003.11,VALID,0,VALID,85.6266,VALID,0,VALID,26.2524,VALID,349,VALID,0.154297,
2009-05-25, 00:55:04,VALID,1003.09,VALID,0,VALID,85.7639,VALID,0,VALID,26.2134,VALID,349,VALID,0.264062,
2009-05-25, 00:56:04,VALID,1003.09,VALID,0,VALID,85.9241,VALID,0.100563,VALID,26.194,VALID,353,VALID,0.5875,
2009-05-25, 00:57:04,VALID,1003.08,VALID,0,VALID,85.9775,VALID,0.100563,VALID,26.2154,VALID,354,VALID,0.439844,
2009-05-25, 00:58:04,VALID,1003.07,VALID,0,VALID,86.1072,VALID,0,VALID,26.155,VALID,354,VALID,0.357031,
2009-05-25, 00:59:04,VALID,1003.05,VALID,0,VALID,86.214,VALID,0,VALID,26.1355,VALID,344,VALID,0.696484,
2009-05-25, 01:00:04,VALID,1003.07,VALID,0,VALID,86.1682,VALID,0,VALID,26.1375,VALID,343,VALID,0.249219,
2009-05-25, 01:01:04,VALID,1003.04,VALID,0,VALID,86.2292,VALID,0,VALID,26.118,VALID,348,VALID,0.538281,
2009-05-25, 01:02:04,VALID,1003.04,VALID,0,VALID,86.2979,VALID,0,VALID,26.0966,VALID,348,VALID,0.491016,
2009-05-25, 01:03:04,VALID,1003.02,VALID,0,VALID,86.4123,VALID,0,VALID,26.0771,VALID,348,VALID,0.547266,
2009-05-25, 01:04:04,VALID,1002.99,VALID,0,VALID,86.5191,VALID,0,VALID,26.0381,VALID,348,VALID,0.451953,
2009-05-25, 01:05:04,VALID,1003,VALID,0,VALID,86.6717,VALID,0,VALID,25.9992,VALID,6,VALID,0.467969,
2009-05-25, 01:06:04,VALID,1002.98,VALID,0,VALID,86.8929,VALID,0,VALID,25.9797,VALID,1,VALID,0.583203,
2009-05-25, 01:07:04,VALID,1002.97,VALID,0,VALID,87.0608,VALID,0,VALID,25.9408,VALID,357,VALID,0.361328,
2009-05-25, 01:08:04,VALID,1002.96,VALID,0,VALID,87.1371,VALID,0,VALID,25.9213,VALID,355,VALID,0.533203,
2009-05-25, 01:09:04,VALID,1002.95,VALID,0,VALID,87.1905,VALID,0,VALID,25.9018,VALID,356,VALID,0.532422,
2009-05-25, 01:10:04,VALID,1002.89,VALID,0,VALID,87.3583,VALID,0,VALID,25.8629,VALID,356,VALID,0.392188,
2009-05-25, 01:11:04,VALID,1002.87,VALID,0,VALID,87.5033,VALID,0,VALID,25.8434,VALID,356,VALID,0.4375,
2009-05-25, 01:12:04,VALID,1002.85,VALID,0,VALID,87.6253,VALID,0,VALID,25.7869,VALID,356,VALID,0.269531,
2009-05-25, 01:13:04,VALID,1002.83,VALID,0,VALID,87.9915,VALID,0,VALID,25.748,VALID,26,VALID,0.739453,
2009-05-25, 01:14:04,VALID,1002.83,VALID,0,VALID,88.1288,VALID,0,VALID,25.7674,VALID,13,VALID,0.627734,
2009-05-25, 01:15:04,VALID,1002.85,VALID,0,VALID,87.9991,VALID,0,VALID,25.7694,VALID,12,VALID,0.156641,
2009-05-25, 01:16:04,VALID,1002.88,VALID,0,VALID,88.0449,VALID,0,VALID,25.7889,VALID,354,VALID,0.459375,
2009-05-25, 01:17:04,VALID,1002.87,VALID,0,VALID,88.1136,VALID,0,VALID,25.7674,VALID,354,VALID,0.410937,
2009-05-25, 01:18:04,VALID,1002.81,VALID,0,VALID,88.0602,VALID,0,VALID,25.7869,VALID,354,VALID,0.401953,
2009-05-25, 01:19:04,VALID,1002.8,VALID,0,VALID,88.0754,VALID,0,VALID,25.7674,VALID,2,VALID,0.329688,
2009-05-25, 01:20:04,VALID,1002.79,VALID,0,VALID,88.1136,VALID,0,VALID,25.7869,VALID,1,VALID,0.788281,
2009-05-25, 01:21:04,VALID,1002.75,VALID,0,VALID,88.0754,VALID,0,VALID,25.8083,VALID,351,VALID,0.374609,
2009-05-25, 01:22:04,VALID,1002.76,VALID,0,VALID,88.0831,VALID,0,VALID,25.7674,VALID,10,VALID,0.705078,
2009-05-25, 01:23:04,VALID,1002.72,VALID,0,VALID,88.0525,VALID,0,VALID,25.8064,VALID,19,VALID,0.466016,
2009-05-25, 01:24:04,VALID,1002.71,VALID,0,VALID,88.1136,VALID,0,VALID,25.8064,VALID,358,VALID,0.716406,
2009-05-25, 01:25:04,VALID,1002.66,VALID,0,VALID,88.022,VALID,0,VALID,25.8278,VALID,3,VALID,0.683984,
2009-05-25, 01:26:04,VALID,1002.66,VALID,0,VALID,87.8923,VALID,0,VALID,25.9057,VALID,8,VALID,0.554297,
2009-05-25, 01:27:04,VALID,1002.65,VALID,0,VALID,87.8313,VALID,0,VALID,25.8823,VALID,20,VALID,1.3832,
2009-05-25, 01:28:04,VALID,1002.65,VALID,0,VALID,87.4956,VALID,0,VALID,25.9817,VALID,350,VALID,0.638672,
2009-05-25, 01:29:04,VALID,1002.62,VALID,0,VALID,87.3354,VALID,0,VALID,25.9797,VALID,29,VALID,0.331641,
2009-05-25, 01:30:04,VALID,1002.62,VALID,0,VALID,87.2515,VALID,0,VALID,25.9797,VALID,31,VALID,0.676562,
2009-05-25, 01:31:04,VALID,1002.6,VALID,0,VALID,87.2744,VALID,0.100563,VALID,25.9602,VALID,22,VALID,0.210547,
2009-05-25, 01:32:04,VALID,1002.6,VALID,0,VALID,87.3888,VALID,0,VALID,25.9622,VALID,8,VALID,0.473437,
2009-05-25, 01:33:04,VALID,1002.57,VALID,0,VALID,87.4193,VALID,0,VALID,25.9213,VALID,8,VALID,0.598828,
2009-05-25, 01:34:04,VALID,1002.56,VALID,0,VALID,87.4575,VALID,0.100563,VALID,25.9408,VALID,10,VALID,0.375,
2009-05-25, 01:35:04,VALID,1002.54,VALID,0,VALID,87.4804,VALID,0,VALID,25.9622,VALID,6,VALID,0.738281,
2009-05-25, 01:36:04,VALID,1002.52,VALID,0,VALID,87.3812,VALID,0,VALID,25.9817,VALID,352,VALID,0.652734,
2009-05-25, 01:37:04,VALID,1002.51,VALID,0,VALID,87.2973,VALID,0,VALID,25.9817,VALID,354,VALID,0.257422,
2009-05-25, 01:38:04,VALID,1002.53,VALID,0,VALID,87.2744,VALID,0,VALID,25.9602,VALID,354,VALID,0.204688,
2009-05-25, 01:39:04,VALID,1002.51,VALID,0,VALID,87.3812,VALID,0,VALID,25.9213,VALID,4,VALID,0.320313,
2009-05-25, 01:40:04,VALID,1002.5,VALID,0,VALID,87.4499,VALID,0,VALID,25.9018,VALID,360,VALID,0.760547,
2009-05-25, 01:41:04,VALID,1002.54,VALID,0,VALID,87.3812,VALID,0,VALID,25.9232,VALID,15,VALID,0.754687,
2009-05-25, 01:42:04,VALID,1002.52,VALID,0,VALID,87.282,VALID,0,VALID,25.9408,VALID,15,VALID,0.353906,
2009-05-25, 01:43:04,VALID,1002.52,VALID,0,VALID,87.2286,VALID,0.100563,VALID,25.9427,VALID,30,VALID,0.494922,
2009-05-25, 01:44:04,VALID,1002.51,VALID,0,VALID,87.2973,VALID,0,VALID,25.9018,VALID,23,VALID,0.426562,
2009-05-25, 01:45:04,VALID,1002.52,VALID,0,VALID,87.4041,VALID,0,VALID,25.9018,VALID,8,VALID,0.346094,
2009-05-25, 01:46:04,VALID,1002.51,VALID,0,VALID,87.3965,VALID,0,VALID,25.9038,VALID,8,VALID,0.301953,
2009-05-25, 01:47:04,VALID,1002.5,VALID,0,VALID,87.5338,VALID,0,VALID,25.8434,VALID,347,VALID,0.65,
2009-05-25, 01:48:04,VALID,1002.47,VALID,0,VALID,87.5109,VALID,0,VALID,25.8629,VALID,6,VALID,0.458984,
2009-05-25, 01:49:04,VALID,1002.45,VALID,0,VALID,87.4651,VALID,0.100563,VALID,25.8629,VALID,7,VALID,0.600781,
2009-05-25, 01:50:04,VALID,1002.46,VALID,0,VALID,87.5567,VALID,0,VALID,25.8648,VALID,10,VALID,0.595312,
2009-05-25, 01:51:04,VALID,1002.44,VALID,0,VALID,87.5795,VALID,0,VALID,25.8648,VALID,9,VALID,0.533203,
2009-05-25, 01:52:04,VALID,1002.44,VALID,0,VALID,87.6406,VALID,0,VALID,25.785,VALID,24,VALID,0.5375,
2009-05-25, 01:53:04,VALID,1002.43,VALID,0,VALID,87.8389,VALID,0,VALID,25.7655,VALID,23,VALID,0.344922,
2009-05-25, 01:54:04,VALID,1002.43,VALID,0,VALID,87.9457,VALID,0.100563,VALID,25.7265,VALID,21,VALID,0.258984,
2009-05-25, 01:55:04,VALID,1002.48,VALID,0,VALID,88.1517,VALID,0,VALID,25.6876,VALID,12,VALID,0.610547,
2009-05-25, 01:56:04,VALID,1002.47,VALID,0,VALID,88.3119,VALID,0,VALID,25.6876,VALID,2,VALID,0.95,
2009-05-25, 01:57:04,VALID,1002.5,VALID,0,VALID,88.2433,VALID,0,VALID,25.7071,VALID,33,VALID,0.337891,
2009-05-25, 01:58:04,VALID,1002.48,VALID,0,VALID,88.2051,VALID,0,VALID,25.7071,VALID,11,VALID,0.576953,
2009-05-25, 01:59:04,VALID,1002.51,VALID,0,VALID,88.2127,VALID,0,VALID,25.746,VALID,41,VALID,0.516406,
2009-05-25, 02:00:04,VALID,1002.51,VALID,0,VALID,88.0831,VALID,0.100563,VALID,25.785,VALID,18,VALID,0.831641,
2009-05-25, 02:01:04,VALID,1002.51,VALID,0,VALID,87.8694,VALID,0,VALID,25.8239,VALID,5,VALID,0.535937,
2009-05-25, 02:02:04,VALID,1002.49,VALID,0,VALID,87.8237,VALID,0,VALID,25.8025,VALID,24,VALID,1.29062,
2009-05-25, 02:03:04,VALID,1002.47,VALID,0,VALID,87.5261,VALID,0.100563,VALID,25.9018,VALID,19,VALID,0.960156,
2009-05-25, 02:04:04,VALID,1002.44,VALID,0,VALID,87.2134,VALID,0,VALID,25.9602,VALID,13,VALID,0.935938,
2009-05-25, 02:05:04,VALID,1002.43,VALID,0,VALID,86.9311,VALID,0,VALID,26.0012,VALID,355,VALID,0.759375,
2009-05-25, 02:06:04,VALID,1002.43,VALID,0,VALID,86.8395,VALID,0.100563,VALID,25.9797,VALID,4,VALID,0.598047,
2009-05-25, 02:07:04,VALID,1002.4,VALID,0,VALID,86.7709,VALID,0,VALID,25.9602,VALID,24,VALID,0.717578,
2009-05-25, 02:08:04,VALID,1002.37,VALID,0,VALID,86.7327,VALID,0,VALID,25.9817,VALID,16,VALID,0.423828,
2009-05-25, 02:09:04,VALID,1002.34,VALID,0,VALID,86.6565,VALID,0,VALID,25.9408,VALID,35,VALID,1.11484,
2009-05-25, 02:10:04,VALID,1002.34,VALID,0,VALID,86.6259,VALID,0,VALID,25.9602,VALID,24,VALID,0.582031,
2009-05-25, 02:11:04,VALID,1002.35,VALID,0,VALID,86.5496,VALID,0,VALID,25.9622,VALID,360,VALID,0.658984,
2009-05-25, 02:12:04,VALID,1002.34,VALID,0,VALID,86.2674,VALID,0,VALID,25.9992,VALID,35,VALID,1.11406,
2009-05-25, 02:13:04,VALID,1002.34,VALID,0,VALID,86.0614,VALID,0,VALID,26.0381,VALID,26,VALID,0.417188,
2009-05-25, 02:14:04,VALID,1002.34,VALID,0,VALID,85.9775,VALID,0,VALID,26.0401,VALID,350,VALID,0.613672,
2009-05-25, 02:15:04,VALID,1002.34,VALID,0,VALID,86.0004,VALID,0,VALID,26.0187,VALID,10,VALID,0.75625,
2009-05-25, 02:16:04,VALID,1002.32,VALID,0,VALID,85.8631,VALID,0,VALID,26.0771,VALID,350,VALID,0.440234,
2009-05-25, 02:17:04,VALID,1002.32,VALID,0,VALID,85.8783,VALID,0,VALID,26.0966,VALID,356,VALID,1.18086,
2009-05-25, 02:18:04,VALID,1002.32,VALID,0,VALID,85.7562,VALID,0,VALID,26.0966,VALID,342,VALID,0.668359,
2009-05-25, 02:19:04,VALID,1002.29,VALID,0,VALID,85.8402,VALID,0,VALID,26.116,VALID,357,VALID,0.756641,
2009-05-25, 02:20:04,VALID,1002.29,VALID,0,VALID,85.9165,VALID,0,VALID,26.0966,VALID,358,VALID,0.568359,
2009-05-25, 02:21:04,VALID,1002.29,VALID,0,VALID,86.0767,VALID,0,VALID,26.0576,VALID,358,VALID,0.335938,
2009-05-25, 02:22:04,VALID,1002.28,VALID,0,VALID,86.1682,VALID,0,VALID,26.0576,VALID,350,VALID,0.419531,
2009-05-25, 02:23:04,VALID,1002.28,VALID,0,VALID,86.3437,VALID,0,VALID,26.0381,VALID,345,VALID,0.945703,
2009-05-25, 02:24:04,VALID,1002.26,VALID,0,VALID,86.4352,VALID,0,VALID,25.9992,VALID,5,VALID,0.551172,
2009-05-25, 02:25:04,VALID,1002.25,VALID,0,VALID,86.5878,VALID,0,VALID,25.9388,VALID,344,VALID,0.419922,
2009-05-25, 02:26:04,VALID,1002.27,VALID,0,VALID,86.5954,VALID,0,VALID,25.9388,VALID,352,VALID,0.542188,
2009-05-25, 02:27:04,VALID,1002.29,VALID,0,VALID,86.6107,VALID,0,VALID,25.9817,VALID,356,VALID,0.510547,
2009-05-25, 02:28:04,VALID,1002.25,VALID,0,VALID,86.5496,VALID,0,VALID,26.0012,VALID,350,VALID,0.786328,
2009-05-25, 02:29:04,VALID,1002.27,VALID,0,VALID,86.4657,VALID,0,VALID,26.0226,VALID,3,VALID,0.66875,
2009-05-25, 02:30:04,VALID,1002.24,VALID,0,VALID,86.3971,VALID,0,VALID,26.0206,VALID,19,VALID,0.792578,
2009-05-25, 02:31:04,VALID,1002.25,VALID,0,VALID,86.3208,VALID,0,VALID,26.0616,VALID,15,VALID,1.02578,
2009-05-25, 02:32:04,VALID,1002.25,VALID,0,VALID,86.1835,VALID,0,VALID,26.0596,VALID,360,VALID,0.702734,
2009-05-25, 02:33:04,VALID,1002.26,VALID,0,VALID,86.1758,VALID,0,VALID,26.0596,VALID,21,VALID,0.792969,
2009-05-25, 02:34:04,VALID,1002.27,VALID,0,VALID,85.9775,VALID,0,VALID,26.0985,VALID,4,VALID,1.01836,
2009-05-25, 02:35:04,VALID,1002.25,VALID,0,VALID,85.8478,VALID,0,VALID,26.118,VALID,347,VALID,0.664063,
2009-05-25, 02:36:04,VALID,1002.29,VALID,0,VALID,85.8402,VALID,0,VALID,26.118,VALID,16,VALID,0.681641,
2009-05-25, 02:37:04,VALID,1002.28,VALID,0,VALID,85.8096,VALID,0,VALID,26.118,VALID,12,VALID,0.598047,
2009-05-25, 02:38:04,VALID,1002.29,VALID,0,VALID,85.8478,VALID,0,VALID,26.118,VALID,13,VALID,1.01602,
2009-05-25, 02:39:04,VALID,1002.25,VALID,0,VALID,85.8249,VALID,0,VALID,26.118,VALID,1,VALID,0.793359,
2009-05-25, 02:40:04,VALID,1002.28,VALID,0,VALID,85.7486,VALID,0,VALID,26.1375,VALID,5,VALID,0.524219,
2009-05-25, 02:41:04,VALID,1002.27,VALID,0,VALID,85.7639,VALID,0,VALID,26.118,VALID,355,VALID,0.253516,
2009-05-25, 02:42:04,VALID,1002.26,VALID,0,VALID,85.8402,VALID,0,VALID,26.12,VALID,24,VALID,1.01445,
2009-05-25, 02:43:04,VALID,1002.27,VALID,0,VALID,85.8173,VALID,0,VALID,26.118,VALID,4,VALID,0.519922,
2009-05-25, 02:44:04,VALID,1002.28,VALID,0,VALID,85.9546,VALID,0,VALID,26.0791,VALID,23,VALID,1.06484,
2009-05-25, 02:45:04,VALID,1002.32,VALID,0,VALID,86.0233,VALID,0,VALID,26.0596,VALID,15,VALID,0.540234,
2009-05-25, 02:46:04,VALID,1002.33,VALID,0,VALID,86.1529,VALID,0,VALID,26.0616,VALID,16,VALID,0.307031,
2009-05-25, 02:47:04,VALID,1002.3,VALID,0,VALID,86.3132,VALID,0,VALID,26.0012,VALID,15,VALID,0.767969,
2009-05-25, 02:48:05,VALID,1002.28,VALID,0,VALID,86.4276,VALID,0,VALID,26.0012,VALID,24,VALID,1.02539,
2009-05-25, 02:49:05,VALID,1002.27,VALID,0,VALID,86.3818,VALID,0,VALID,26.0206,VALID,24,VALID,0.917578,
2009-05-25, 02:50:05,VALID,1002.28,VALID,0,VALID,86.3284,VALID,0,VALID,26.0031,VALID,27,VALID,0.482031,
2009-05-25, 02:51:05,VALID,1002.27,VALID,0,VALID,86.5649,VALID,0,VALID,25.9836,VALID,10,VALID,0.385938,
2009-05-25, 02:52:05,VALID,1002.26,VALID,0,VALID,86.6717,VALID,0,VALID,25.9232,VALID,11,VALID,0.458594,
2009-05-25, 02:53:05,VALID,1002.27,VALID,0,VALID,86.7556,VALID,0,VALID,25.9642,VALID,12,VALID,0.759766,
2009-05-25, 02:54:05,VALID,1002.28,VALID,0,VALID,86.6336,VALID,0,VALID,26.0031,VALID,14,VALID,0.6,
2009-05-25, 02:55:05,VALID,1002.27,VALID,0,VALID,86.7099,VALID,0,VALID,25.9642,VALID,22,VALID,0.357031,
2009-05-25, 02:56:05,VALID,1002.25,VALID,0,VALID,86.8167,VALID,0,VALID,25.9447,VALID,22,VALID,0.192188,
2009-05-25, 02:57:05,VALID,1002.29,VALID,0,VALID,86.9082,VALID,0,VALID,25.9018,VALID,20,VALID,1.15078,
2009-05-25, 02:58:05,VALID,1002.27,VALID,0,VALID,86.954,VALID,0,VALID,25.9213,VALID,30,VALID,1.16797,
2009-05-25, 02:59:05,VALID,1002.29,VALID,0,VALID,86.8929,VALID,0,VALID,25.9018,VALID,5,VALID,0.428906,
2009-05-25, 03:00:05,VALID,1002.29,VALID,0,VALID,86.9235,VALID,0.100563,VALID,25.9018,VALID,35,VALID,0.435156,
2009-05-25, 03:01:05,VALID,1002.31,VALID,0,VALID,87.0989,VALID,0,VALID,25.8629,VALID,335,VALID,0.61875,
2009-05-25, 03:02:05,VALID,1002.3,VALID,0,VALID,87.2057,VALID,0.100563,VALID,25.8434,VALID,2,VALID,0.225391,
2009-05-25, 03:03:05,VALID,1002.31,VALID,0,VALID,87.3049,VALID,0,VALID,25.8044,VALID,2,VALID,0.257422,
2009-05-25, 03:04:05,VALID,1002.29,VALID,0,VALID,87.4422,VALID,0,VALID,25.8259,VALID,32,VALID,1.0918,
2009-05-25, 03:05:05,VALID,1002.29,VALID,0,VALID,87.3812,VALID,0.100563,VALID,25.785,VALID,10,VALID,0.177734,
2009-05-25, 03:06:05,VALID,1002.26,VALID,0,VALID,87.488,VALID,0,VALID,25.7674,VALID,10,VALID,0.211719,
2009-05-25, 03:07:05,VALID,1002.27,VALID,0,VALID,87.5643,VALID,0,VALID,25.748,VALID,10,VALID,0.3875,
2009-05-25, 03:08:05,VALID,1002.27,VALID,0,VALID,87.7474,VALID,0,VALID,25.6876,VALID,30,VALID,0.664453,
2009-05-25, 03:09:05,VALID,1002.27,VALID,0,VALID,87.8771,VALID,0.100563,VALID,25.67,VALID,31,VALID,0.193359,
2009-05-25, 03:10:05,VALID,1002.27,VALID,0,VALID,88.0525,VALID,0,VALID,25.6311,VALID,10,VALID,0.554688,
2009-05-25, 03:11:05,VALID,1002.26,VALID,0,VALID,88.1822,VALID,0,VALID,25.6097,VALID,8,VALID,0.441016,
2009-05-25, 03:12:05,VALID,1002.28,VALID,0,VALID,88.3348,VALID,0,VALID,25.6311,VALID,16,VALID,1.20508,
2009-05-25, 03:13:05,VALID,1002.27,VALID,0,VALID,88.022,VALID,0,VALID,25.6681,VALID,21,VALID,0.974219,
2009-05-25, 03:14:05,VALID,1002.31,VALID,0,VALID,87.7321,VALID,0,VALID,25.748,VALID,20,VALID,0.441016,
2009-05-25, 03:15:05,VALID,1002.32,VALID,0,VALID,87.5719,VALID,0,VALID,25.7071,VALID,21,VALID,0.313672,
2009-05-25, 03:16:05,VALID,1002.32,VALID,0,VALID,87.6101,VALID,0,VALID,25.6895,VALID,20,VALID,0.373828,
2009-05-25, 03:17:05,VALID,1002.3,VALID,0,VALID,87.7855,VALID,0,VALID,25.6506,VALID,2,VALID,0.235156,
2009-05-25, 03:18:05,VALID,1002.29,VALID,0,VALID,87.8923,VALID,0,VALID,25.6311,VALID,348,VALID,0.61875,
2009-05-25, 03:19:05,VALID,1002.31,VALID,0,VALID,87.7626,VALID,0,VALID,25.6506,VALID,9,VALID,0.4375,
2009-05-25, 03:20:05,VALID,1002.33,VALID,0,VALID,87.7398,VALID,0,VALID,25.6506,VALID,11,VALID,0.617969,
2009-05-25, 03:21:05,VALID,1002.35,VALID,0,VALID,87.7932,VALID,0,VALID,25.6292,VALID,359,VALID,0.573438,
2009-05-25, 03:22:05,VALID,1002.34,VALID,0,VALID,87.7016,VALID,0,VALID,25.6292,VALID,10,VALID,0.0863281,
2009-05-25, 03:23:05,VALID,1002.33,VALID,0,VALID,87.6863,VALID,0,VALID,25.67,VALID,4,VALID,0.585938,
2009-05-25, 03:24:05,VALID,1002.31,VALID,0,VALID,87.5872,VALID,0.100563,VALID,25.6876,VALID,6,VALID,0.396094,
2009-05-25, 03:25:05,VALID,1002.29,VALID,0,VALID,87.4346,VALID,0,VALID,25.6895,VALID,6,VALID,0.292578,
2009-05-25, 03:26:05,VALID,1002.31,VALID,0,VALID,87.4346,VALID,0,VALID,25.6681,VALID,341,VALID,0.416797,
2009-05-25, 03:27:05,VALID,1002.31,VALID,0,VALID,87.5033,VALID,0,VALID,25.6525,VALID,341,VALID,0.259766,
2009-05-25, 03:28:05,VALID,1002.25,VALID,0,VALID,87.694,VALID,0,VALID,25.6136,VALID,13,VALID,0.0773437,
2009-05-25, 03:29:05,VALID,1002.27,VALID,0,VALID,87.8542,VALID,0,VALID,25.5532,VALID,13,VALID,0.410937,
2009-05-25, 03:30:05,VALID,1002.26,VALID,0,VALID,88.0907,VALID,0,VALID,25.5532,VALID,18,VALID,0.525391,
2009-05-25, 03:31:05,VALID,1002.24,VALID,0,VALID,88.1899,VALID,0,VALID,25.5551,VALID,343,VALID,0.420703,
2009-05-25, 03:32:05,VALID,1002.24,VALID,0,VALID,88.2204,VALID,0,VALID,25.5142,VALID,343,VALID,0.389062,
2009-05-25, 03:33:05,VALID,1002.23,VALID,0,VALID,88.3348,VALID,0,VALID,25.4948,VALID,343,VALID,0.429688,
2009-05-25, 03:34:05,VALID,1002.19,VALID,0,VALID,88.4111,VALID,0,VALID,25.4967,VALID,343,VALID,0.261719,
2009-05-25, 03:35:05,VALID,1002.16,VALID,0,VALID,88.5484,VALID,0,VALID,25.4967,VALID,19,VALID,0.711719,
2009-05-25, 03:36:05,VALID,1002.13,VALID,0,VALID,88.3348,VALID,0,VALID,25.5532,VALID,4,VALID,0.392969,
2009-05-25, 03:37:05,VALID,1002.09,VALID,0,VALID,88.2967,VALID,0,VALID,25.5551,VALID,20,VALID,0.883203,
2009-05-25, 03:38:05,VALID,1002.08,VALID,0,VALID,88.2661,VALID,0,VALID,25.6116,VALID,26,VALID,1.5832,
2009-05-25, 03:39:05,VALID,1002.08,VALID,0,VALID,87.755,VALID,0,VALID,25.7499,VALID,23,VALID,1.28906,
2009-05-25, 03:40:05,VALID,1002.03,VALID,0,VALID,87.2744,VALID,0,VALID,25.8064,VALID,38,VALID,0.983984,
2009-05-25, 03:41:05,VALID,1002.01,VALID,0,VALID,86.9769,VALID,0,VALID,25.8648,VALID,28,VALID,0.723437,
2009-05-25, 03:42:05,VALID,1002.03,VALID,0,VALID,86.9616,VALID,0,VALID,25.8648,VALID,30,VALID,1.06836,
2009-05-25, 03:43:05,VALID,1002.01,VALID,0,VALID,86.9387,VALID,0,VALID,25.8648,VALID,28,VALID,0.934766,
2009-05-25, 03:44:05,VALID,1002.01,VALID,0,VALID,86.9616,VALID,0,VALID,25.8648,VALID,26,VALID,1.02305,